Weather History for La Grange, GA

Change the Weather History Date:

Friday, October 7, 2011

  Actual Average Record
Temperature  
Mean Temperature 63 °F -  
Max Temperature 78 °F 77 °F 89 °F (1955)
Min Temperature 48 °F 51 °F 34 °F (1964)
Degree Days  
Heating Degree Days 2    
Growing Degree Days 13 (Base 50)    
Moisture  
Dew Point 52 °F    
Average Humidity 67    
Maximum Humidity 100    
Minimum Humidity 32    
Precipitation  
Precipitation 0.00 in - - ()
Sea Level Pressure  
Sea Level Pressure 30.30 in    
Wind  
Wind Speed 4 mph (East)    
Max Wind Speed 10 mph    
Max Gust Speed 18 mph    
Visibility 10 miles    
Events      
Averages and records for this station are not official NWS values.
T = Trace of Precipitation, MM = Missing Value Source: NWS Daily Summary

Daily Weather History Graph

Daily Weather History Graph

Search for Another Location

Airport:

Trip Planner

Search our weather history database for the weather conditions in past years. The results will help you decide how hot, cold, wet, or windy it might be!

Date:

Astronomy

Oct. 07, 2011 Rise Set
Actual Time 7:38 AM EDT 7:17 PM EDT
Civil Twilight 7:13 AM EDT 7:42 PM EDT
Nautical Twilight 6:45 AM EDT 8:10 PM EDT
Astronomical Twilight 6:16 AM EDT 8:39 PM EDT
Moon 4:49 PM EDT (10/7) 3:38 AM EDT (10/7)
Length of Visible Light 12h 28m
Length of Day
11h 38m
Waxing Gibbous, 83% of the Moon is Illuminated
Oct 7
Waxing Gibbous
Oct 11
Full
Oct 19
Last Quarter
Oct 26
New
Nov 2
First Quarter

Hourly Weather History & Observations

Time (EDT) Temp. Dew Point Humidity Pressure Visibility Wind Dir Wind Speed Gust Speed Precip Events Conditions
12:15 AM 64.4 °F 53.6 °F 68% 30.27 in 10.0 mi East 3.5 mph - N/A   Unknown
12:35 AM 64.4 °F 53.6 °F 68% 30.28 in 10.0 mi ESE 4.6 mph - N/A   Unknown
12:55 AM 64.4 °F 53.6 °F 68% 30.28 in 10.0 mi East 4.6 mph - N/A   Unknown
1:15 AM 62.6 °F 53.6 °F 72% 30.28 in 10.0 mi East 4.6 mph - N/A   Unknown
1:35 AM 62.6 °F 53.6 °F 72% 30.27 in 10.0 mi East 3.5 mph - N/A   Unknown
1:55 AM 62.6 °F 55.4 °F 77% 30.27 in 10.0 mi Calm Calm - N/A   Unknown
2:15 AM 59.0 °F 57.2 °F 94% 30.27 in 10.0 mi Calm Calm - N/A   Unknown
2:35 AM 57.2 °F 57.2 °F 100% 30.27 in 10.0 mi Calm Calm - N/A   Unknown
2:55 AM 55.4 °F 55.4 °F 100% 30.27 in 10.0 mi Calm Calm - N/A   Unknown
3:15 AM 53.6 °F 53.6 °F 100% 30.27 in 10.0 mi North - - N/A   Unknown
3:35 AM 55.4 °F 55.4 °F 100% 30.27 in 10.0 mi North - - N/A   Unknown
3:55 AM 55.4 °F 55.4 °F 100% 30.26 in 10.0 mi North - - N/A   Unknown
4:15 AM 55.4 °F 55.4 °F 100% 30.27 in 10.0 mi Calm Calm - N/A   Unknown
4:35 AM 51.8 °F 51.8 °F 100% 30.27 in 10.0 mi Calm Calm - N/A   Unknown
4:55 AM 51.8 °F 51.8 °F 100% 30.27 in 10.0 mi Calm Calm - N/A   Unknown
5:15 AM 51.8 °F - N/A% 30.27 in 10.0 mi Calm Calm - N/A   Unknown
5:35 AM 51.8 °F - N/A% 30.27 in 10.0 mi Calm Calm - N/A   Unknown
5:55 AM 50.0 °F - N/A% 30.28 in 10.0 mi Calm Calm - N/A   Unknown
6:15 AM 50.0 °F - N/A% 30.29 in 10.0 mi North - - N/A   Unknown
6:35 AM 48.2 °F - N/A% 30.29 in 10.0 mi Calm Calm - N/A   Unknown
6:55 AM 50.0 °F - N/A% 30.30 in 10.0 mi Calm Calm - N/A   Unknown
7:15 AM 53.6 °F 53.6 °F 100% 30.30 in 10.0 mi Calm Calm - N/A   Unknown
7:35 AM 53.6 °F 53.6 °F 100% 30.31 in 10.0 mi Calm Calm - N/A   Unknown
7:55 AM 53.6 °F 53.6 °F 100% 30.31 in 10.0 mi Calm Calm - N/A   Unknown
8:15 AM 55.4 °F 55.4 °F 100% 30.32 in 10.0 mi Calm Calm - N/A   Unknown
8:35 AM 55.4 °F 55.4 °F 100% 30.33 in 10.0 mi East 3.5 mph - N/A   Unknown
8:55 AM 57.2 °F 57.2 °F 100% 30.33 in 10.0 mi ENE 3.5 mph - N/A   Unknown
9:15 AM 59.0 °F 57.2 °F 94% 30.33 in 10.0 mi East 3.5 mph - N/A   Unknown
9:35 AM 60.8 °F 55.4 °F 82% 30.34 in 10.0 mi East 4.6 mph - N/A   Unknown
9:55 AM 62.6 °F 53.6 °F 72% 30.34 in 10.0 mi East 4.6 mph - N/A   Unknown
10:15 AM 64.4 °F 51.8 °F 64% 30.35 in 10.0 mi East 6.9 mph - N/A   Unknown
10:35 AM 66.2 °F 51.8 °F 60% 30.35 in 10.0 mi ESE 4.6 mph - N/A   Unknown
10:55 AM 69.8 °F 50.0 °F 49% 30.35 in 10.0 mi East 10.4 mph - N/A   Unknown
11:15 AM 71.6 °F 51.8 °F 50% 30.35 in 10.0 mi ESE 8.1 mph - N/A   Unknown
11:35 AM 71.6 °F 51.8 °F 50% 30.35 in 10.0 mi ESE 5.8 mph - N/A   Unknown
11:55 AM 71.6 °F 51.8 °F 50% 30.35 in 10.0 mi East 8.1 mph 18.4 mph N/A   Unknown
12:15 PM 73.4 °F 51.8 °F 47% 30.34 in 10.0 mi ENE 8.1 mph - N/A   Unknown
12:35 PM 73.4 °F 48.2 °F 41% 30.34 in 10.0 mi ESE 10.4 mph 18.4 mph N/A   Unknown
12:55 PM 73.4 °F 50.0 °F 44% 30.33 in 10.0 mi East 9.2 mph 16.1 mph N/A   Unknown
1:15 PM 73.4 °F 48.2 °F 41% 30.32 in 10.0 mi East 9.2 mph 17.3 mph N/A   Unknown
1:35 PM 75.2 °F 46.4 °F 36% 30.31 in 10.0 mi ESE 5.8 mph - N/A   Unknown
1:55 PM 75.2 °F 46.4 °F 36% 30.30 in 10.0 mi ENE 9.2 mph - N/A   Unknown
2:15 PM 75.2 °F 46.4 °F 36% 30.30 in 10.0 mi East 8.1 mph - N/A   Unknown
2:35 PM 75.2 °F 46.4 °F 36% 30.29 in 10.0 mi ESE 6.9 mph - N/A   Unknown
2:55 PM 75.2 °F 46.4 °F 36% 30.28 in 10.0 mi ENE 6.9 mph - N/A   Unknown
3:15 PM 77.0 °F 46.4 °F 34% 30.27 in 10.0 mi East 9.2 mph - N/A   Unknown
3:35 PM 78.8 °F 46.4 °F 32% 30.27 in 10.0 mi East 6.9 mph - N/A   Unknown
3:55 PM 78.8 °F 46.4 °F 32% 30.26 in 10.0 mi ESE 6.9 mph - N/A   Unknown
4:15 PM 78.8 °F 48.2 °F 34% 30.26 in 10.0 mi East 6.9 mph - N/A   Unknown
4:35 PM 77.0 °F 48.2 °F 36% 30.26 in 10.0 mi ESE 5.8 mph - N/A   Unknown
4:55 PM 78.8 °F 48.2 °F 34% 30.26 in 10.0 mi ESE 6.9 mph - N/A   Unknown
5:15 PM 77.0 °F 48.2 °F 36% 30.26 in 10.0 mi East 8.1 mph - N/A   Unknown
5:35 PM 77.0 °F 48.2 °F 36% 30.25 in 10.0 mi ENE 6.9 mph - N/A   Unknown
5:55 PM 75.2 °F 48.2 °F 38% 30.26 in 10.0 mi ENE 4.6 mph - N/A   Unknown
6:15 PM 75.2 °F 48.2 °F 38% 30.26 in 10.0 mi ENE 4.6 mph - N/A   Unknown
6:35 PM 73.4 °F 48.2 °F 41% 30.25 in 10.0 mi East 4.6 mph - N/A   Unknown
6:55 PM 73.4 °F 50.0 °F 44% 30.25 in 10.0 mi East 4.6 mph - N/A   Unknown
7:15 PM 71.6 °F 51.8 °F 50% 30.26 in 10.0 mi East 4.6 mph - N/A   Unknown
7:35 PM 69.8 °F 51.8 °F 53% 30.27 in 10.0 mi Calm Calm - N/A   Unknown
7:55 PM 66.2 °F 53.6 °F 64% 30.27 in 10.0 mi Calm Calm - N/A   Unknown
8:15 PM 66.2 °F 53.6 °F 64% 30.27 in 10.0 mi Calm Calm - N/A   Unknown
8:35 PM 66.2 °F 53.6 °F 64% 30.28 in 10.0 mi Calm Calm - N/A   Unknown
8:55 PM 66.2 °F 53.6 °F 64% 30.28 in 10.0 mi Calm Calm - N/A   Unknown
9:15 PM 66.2 °F 53.6 °F 64% 30.29 in 10.0 mi Calm Calm - N/A   Unknown
9:35 PM 66.2 °F 53.6 °F 64% 30.29 in 10.0 mi ENE 3.5 mph - N/A   Unknown
9:55 PM 66.2 °F 53.6 °F 64% 30.30 in 10.0 mi Calm Calm - N/A   Unknown
10:15 PM 64.4 °F 55.4 °F 73% 30.30 in 10.0 mi Calm Calm - N/A   Unknown
10:35 PM 64.4 °F 55.4 °F 73% 30.31 in 10.0 mi East 4.6 mph - N/A   Unknown
10:55 PM 66.2 °F 55.4 °F 68% 30.31 in 10.0 mi East 5.8 mph - N/A   Unknown
11:15 PM 66.2 °F 55.4 °F 68% 30.31 in 10.0 mi East 6.9 mph - N/A   Unknown
11:35 PM 66.2 °F 55.4 °F 68% 30.31 in 10.0 mi East 6.9 mph - N/A   Unknown
11:55 PM 66.2 °F 55.4 °F 68% 30.31 in 10.0 mi East 5.8 mph - N/A   Unknown